Regional Weather Roundup
Issued by NWS

Home | Current Version | Previous Version | Graphics & Text | Print | Product List | Glossary On
Versions: 1 2 3 4 5 6 7 8 9 10 11 12 13 14 15 16 17 18 19 20 21 22 23 24 25 26 27 28 29 30 31 32 33 34 35 36 37 38 39 40 41 42 43 44 45 46 47 48 49 50
000
ASUS43 KIND 242059
RWRIN

WEATHER ROUNDUP FOR INDIANA
NATIONAL WEATHER SERVICE INDIANAPOLIS IN
500 PM EDT TUE MAY 24 2016

NOTE: "FAIR" INDICATES FEW OR NO CLOUDS BELOW 12,000 FEET WITH NO
SIGNIFICANT WEATHER AND/OR OBSTRUCTIONS TO VISIBILITY.

* - STATION DOES NOT REPORT WEATHER SUCH AS PRECIPITATION OR FOG.

+ - STATION NOT QUALITY CONTROLLED BY THE NATIONAL WEATHER SERVICE.
    USE DATA WITH CAUTION...ESPECIALLY DEWPOINT AND RELATIVE
    HUMIDITY OBSERVATIONS.

INZ001>003-010>013-019-020-242200-
NORTHWEST INDIANA

CITY           SKY/WX    TMP DP  RH WIND       PRES   REMARKS
GARY /AIRPORT/ PTSUNNY   88  57  35 SW12G23   29.95F
RENSSELAER +   SUNNY     88  37  16 S14G24    29.98R

$$

LMZ046-743>745-242200-
SOUTHERN LAKE MICHIGAN

STATION/POSITION TIME  TEMP    WIND        PRES    WAVE
                       AIR SEA DIR/SP/G            HT
                 (UTC) (F)     (DEG/KT/KT) (MB)    (FT)
BURNS HARBOR     2000   84     190/ 16/ 19 1014.6F
MICHIGAN CITY    2000   81     190/ 15/ 18   N/A
5NW MICH CITY    2000   74 61  220/ 10/ 14   N/A     1

$$

INZ004-005-014>016-021>024-242200-
NORTH CENTRAL INDIANA

CITY           SKY/WX    TMP DP  RH WIND       PRES   REMARKS
ELKHART        SUNNY     84  57  39 S13G18    29.98F
GOSHEN         SUNNY     83  46  27 SW12G20   29.98F
SOUTH BEND     SUNNY     85  48  27 S16G23    29.97F

$$

INZ006>009-017-018-025>027-242200-
NORTHEAST INDIANA

CITY           SKY/WX    TMP DP  RH WIND       PRES   REMARKS
ANGOLA *+      SUNNY     82  52  34 SW12      30.00F
FORT WAYNE     MOSUNNY   84  47  27 SW13      30.01F

$$

INZ028-029-035-036-043>045-051>053-242200-
WEST CENTRAL INDIANA

CITY           SKY/WX    TMP DP  RH WIND       PRES   REMARKS
CRAWFORDSVL +  SUNNY     82  53  35 SW9       30.02S
GREENCASTLE +  SUNNY     81  59  47 SW7       30.04R
LAFAYETTE      SUNNY     84  48  28 SW9       29.99S
TERRE HAUTE    MOSUNNY   81  54  39 SW13      30.03R

$$

INZ030>032-037>040-046>048-054>057-064-065-242200-
CENTRAL INDIANA

CITY           SKY/WX    TMP DP  RH WIND       PRES   REMARKS
COLUMBUS       SUNNY     81  50  34 S9        30.04F
INDIANAPOLIS   MOSUNNY   82  54  37 S13       30.02S
-EAGLE CREEK   SUNNY     82  49  31 S6        30.02S
KOKOMO *+      SUNNY     82  52  34 SW8G17    30.01R
SHELBYVILLE    SUNNY     84  51  31 SW8       30.02F

$$

INZ033-034-041-042-049-050-058-059-242200-
EAST CENTRAL INDIANA

CITY           SKY/WX    TMP DP  RH WIND       PRES   REMARKS
MUNCIE         SUNNY     84  42  22 SW8       30.03F

$$

INZ060-061-067>069-081>083-085>088-242200-
SOUTHWEST INDIANA

CITY           SKY/WX    TMP DP  RH WIND       PRES   REMARKS
EVANSVILLE     CLOUDY    79  54  41 SW9       30.06S
HUNTINGBURG *+ MOSUNNY   82  57  42 S9        30.06S

$$

INZ062-063-066-070>080-084-089>092-242200-
SOUTH CENTRAL AND SOUTHEAST INDIANA

CITY           SKY/WX    TMP DP  RH WIND       PRES   REMARKS
BLOOMINGTON    MOSUNNY   84  51  31 SW10G18   30.04S
MADISON *+     SUNNY     82  36  18 SE6       30.08F
SEYMOUR +      SUNNY     84  54  34 S12       30.03F

$$




USA.gov is the U.S. government's official web portal to all federal, state and local government web resources and services.